Regional Weather Roundup
Issued by NWS

Home | Current Version | Previous Version | Text Only | Print | Product List | Glossary On
Versions: 1 2 3 4 5 6 7 8 9 10 11 12 13 14 15 16 17 18 19 20 21 22 23 24 25 26 27 28 29 30 31 32 33 34 35 36 37 38 39 40 41 42 43 44 45 46 47 48 49 50
000
ASUS43 KLSX 221610
RWRMO

WEATHER SUMMARY FOR MISSOURI
NATIONAL WEATHER SERVICE SPRINGFIELD MO
1100 AM CDT THU JUN 22 2017

NOTE: "FAIR" INDICATES FEW OR NO CLOUDS BELOW 12,000 FEET WITH NO
       SIGNIFICANT WEATHER AND/OR OBSTRUCTIONS TO VISIBILITY.
       CURRENT SKY AND/OR WEATHER CONDITIONS ARE NOT AVAILABLE FOR
       CHILLICOTHE AND FARMINGTON.

MOZ001>031-035>038-043-044-053-054-221700-
...NORTHERN AND WESTERN MISSOURI...

CITY           SKY/WX    TMP DP  RH WIND       PRES   REMARKS
KANSAS CTY INT MOSUNNY   82  71  69 SW17      29.75S
KANSAS C DTWN  SUNNY     84  70  62 SW14      29.74F
LEE`S SUMMIT   SUNNY     81  70  69 S14       29.77F
ST JOSEPH      CLOUDY    82  70  66 MISG      29.72S
CHILLICOTHE      N/A     83  71  67 S8G18     29.75F
KIRKSVILLE     SUNNY     82  70  66 S15       29.78S

$$
MOZ066>068-077>081-088>096-101>105-221700-
...SOUTHWEST MISSOURI...

CITY           SKY/WX    TMP DP  RH WIND       PRES   REMARKS
SPRINGFIELD    CLOUDY    78  72  81 SE14      29.82F
JOPLIN         PTSUNNY   81  73  76 SE8       29.79F
BRANSON        CLOUDY    73  73 100 SE10      29.84F

$$
MOZ032>034-039>042-045>050-055>058-069>072-221700-
...CENTRAL MISSOURI...

CITY           SKY/WX    TMP DP  RH WIND       PRES   REMARKS
COLUMBIA       CLOUDY    77  72  84 S13       29.83S
JEFFERSON CITY CLOUDY    79  70  74 S10       29.81F
ROLLA          CLOUDY    77  71  82 S15       29.85F
SEDALIA        CLOUDY    82  75  79 S13       29.81S
WHITEMAN AFB   PTSUNNY   80  75  84 SW16      29.77F
WARRENSBURG    PTSUNNY   79  68  69 S14G20    29.78S
OSAGE BEACH    CLOUDY    78  72  81 S12G17    29.83F

$$
MOZ051-052-059>065-221700-
...EAST CENTRAL MISSOURI...

CITY           SKY/WX    TMP DP  RH WIND       PRES   REMARKS
ST LOUIS INTL  CLOUDY    82  70  66 S15       29.87F
SPIRIT OF STL  CLOUDY    81  72  74 S9        29.84F
ST CHARLES     CLOUDY    80  72  76 S10       29.85F

$$
MOZ072>076-082>087-097>100-106>115-221700-
...SOUTH CENTRAL AND SOUTHEAST MISSOURI...

CITY           SKY/WX    TMP DP  RH WIND       PRES   REMARKS
CAPE GIRARDEAU LGT RAIN  74  71  91 SE10      29.88F FOG
FARMINGTON     CLOUDY    74  71  91 SE6       29.90S
POPLAR BLUFF   CLOUDY    76  73  91 SE9       29.86F
WEST PLAINS    CLOUDY    75  71  87 SE9       29.88F

$$




USA.gov is the U.S. government's official web portal to all federal, state and local government web resources and services.